����,���ϕ���(m/s),���ϕ���,�ő�u�ԕ���(m/s),�ő啗��������,�C��(��),���x(%),10���Ԉړ��ώZ�J��(mm),1���Ԉړ��ώZ�J��(mm),���J��(mm),�݌v�J��(mm)
2024-01-01T00:00:00+09:00,2.6,�k��,6,�k�k��,7.8,79.7,0,0,3,3
2024-01-01T00:01:00+09:00,2.7,�k��,6,�k�k��,7.8,79.7,0,0,0,3
2024-01-01T00:02:00+09:00,2.7,�k��,6,�k�k��,7.7,79.2,0,0,0,3
2024-01-01T00:03:00+09:00,2.8,�k��,6,�k�k��,7.8,78.7,0,0,0,3
2024-01-01T00:04:00+09:00,2.7,�k��,6,�k�k��,7.8,78.8,0,0,0,3
2024-01-01T00:05:00+09:00,2.6,�k��,6,�k�k��,7.7,79.8,0,0,0,3
2024-01-01T00:06:00+09:00,2.7,�k��,6.5,�k�k��,7.7,80,0,0,0,3
2024-01-01T00:07:00+09:00,3,�k��,7.1,�k,7.7,80,0,0,0,3
2024-01-01T00:08:00+09:00,3.2,�k��,7.1,�k,7.7,80.4,0,0,0,3
2024-01-01T00:09:00+09:00,3.4,�k��,7.1,�k,7.7,80.2,0,0,0,3
2024-01-01T00:10:00+09:00,3.4,�k��,7.1,�k,7.6,80.6,0,0,0,3
2024-01-01T00:11:00+09:00,3.4,���k��,7.1,�k,7.6,79.8,0,0,0,3
2024-01-01T00:12:00+09:00,3.6,���k��,7.5,��,7.6,80.5,0,0,0,3
2024-01-01T00:13:00+09:00,4.1,���k��,9.5,���k��,7.6,79.6,0,0,0,3
2024-01-01T00:14:00+09:00,4.1,���k��,9.5,���k��,7.6,79.3,0,0,0,3
2024-01-01T00:15:00+09:00,4.1,���k��,9.5,���k��,7.6,80.1,0,0,0,3
2024-01-01T00:16:00+09:00,4,���k��,9.5,���k��,7.5,80.6,0,0,0,3
2024-01-01T00:17:00+09:00,4.2,���k��,9.5,���k��,7.5,79.9,0,0,0,3
2024-01-01T00:18:00+09:00,4.5,���k��,9.5,���k��,7.5,80,0,0,0,3
2024-01-01T00:19:00+09:00,4.5,�k��,9.5,���k��,7.5,80.7,0,0,0,3
2024-01-01T00:20:00+09:00,4.4,�k��,9.5,���k��,7.5,80.5,0,0,0,3
2024-01-01T00:21:00+09:00,4.4,�k��,9.5,���k��,7.4,80.1,0,0,0,3
2024-01-01T00:22:00+09:00,4.3,�k��,9.5,���k��,7.5,78.7,0,0,0,3
2024-01-01T00:23:00+09:00,3.8,�k��,8.4,�k��,7.5,79,0,0,0,3
2024-01-01T00:24:00+09:00,3.7,�k��,8.4,�k��,7.4,80.3,0,0,0,3
2024-01-01T00:25:00+09:00,3.9,�k��,8.4,�k��,7.4,80,0,0,0,3
2024-01-01T00:26:00+09:00,3.9,�k��,8.4,�k��,7.4,80.2,0,0,0,3
2024-01-01T00:27:00+09:00,3.7,�k��,9.6,�k��,7.4,79.9,0,0,0,3
2024-01-01T00:28:00+09:00,3.6,�k��,9.6,�k��,7.4,79.2,0,0,0,3
2024-01-01T00:29:00+09:00,3.5,�k��,9.6,�k��,7.4,80.1,0,0,0,3
2024-01-01T00:30:00+09:00,3.4,�k��,9.6,�k��,7.4,78.6,0,0,0,3
2024-01-01T00:31:00+09:00,3.3,���k��,9.6,�k��,7.4,79.4,0,0,0,3
2024-01-01T00:32:00+09:00,3.3,���k��,9.6,�k��,7.3,79.5,0,0,0,3
2024-01-01T00:33:00+09:00,3.5,�k��,9.6,�k��,7.3,78.8,0,0,0,3
2024-01-01T00:34:00+09:00,3.7,�k��,9.6,�k��,7.3,79.2,0,0,0,3
2024-01-01T00:35:00+09:00,3.6,�k��,9.6,�k��,7.3,79.5,0,0,0,3
2024-01-01T00:36:00+09:00,3.5,�k��,9.6,�k��,7.3,79.6,0,0,0,3
2024-01-01T00:37:00+09:00,3.3,�k��,7.2,�k��,7.3,78.8,0,0,0,3
2024-01-01T00:38:00+09:00,3.1,�k��,7.2,�k��,7.3,78.6,0,0,0,3
2024-01-01T00:39:00+09:00,3.4,�k��,7.5,���k��,7.3,78.8,0,0,0,3
2024-01-01T00:40:00+09:00,3.5,�k��,7.5,���k��,7.2,78.9,0,0,0,3
2024-01-01T00:41:00+09:00,3.7,�k��,7.5,���k��,7.2,78.6,0,0,0,3
2024-01-01T00:42:00+09:00,3.7,�k��,7.5,���k��,7.2,78.5,0,0,0,3
2024-01-01T00:43:00+09:00,3.9,�k��,10.8,�k��,7.2,78.3,0,0,0,3
2024-01-01T00:44:00+09:00,4,�k��,10.8,�k��,7.3,77.2,0,0,0,3
2024-01-01T00:45:00+09:00,4,�k��,10.8,�k��,7.2,77.8,0,0,0,3
2024-01-01T00:46:00+09:00,4,�k��,10.8,�k��,7.3,76.1,0,0,0,3
2024-01-01T00:47:00+09:00,4,�k��,10.8,�k��,7.3,75.6,0,0,0,3
2024-01-01T00:48:00+09:00,4.1,�k��,10.8,�k��,7.3,75.8,0,0,0,3
2024-01-01T00:49:00+09:00,4.2,�k��,10.8,�k��,7.3,76.9,0,0,0,3
2024-01-01T00:50:00+09:00,4.2,�k��,10.8,�k��,7.2,77.5,0,0,0,3
2024-01-01T00:51:00+09:00,4.1,�k��,10.8,�k��,7.1,77.5,0,0,0,3
2024-01-01T00:52:00+09:00,4.3,�k��,10.8,�k��,7.2,76.9,0,0,0,3
2024-01-01T00:53:00+09:00,4,�k��,9.1,�k��,7.2,76.5,0,0,0,3
2024-01-01T00:54:00+09:00,3.8,�k��,9.1,�k��,7.2,77.3,0,0,0,3
2024-01-01T00:55:00+09:00,3.7,�k��,9.1,�k��,7.2,77.3,0,0,0,3
2024-01-01T00:56:00+09:00,3.8,�k��,9.1,�k��,7.1,77.9,0,0,0,3
2024-01-01T00:57:00+09:00,4,�k��,9.1,�k��,7.1,77.5,0,0,0,3
2024-01-01T00:58:00+09:00,3.8,�k��,9.1,�k��,7.2,76.2,0,0,0,3
2024-01-01T00:59:00+09:00,3.9,�k��,9.5,���k��,7.2,76.2,0,0,0,3
2024-01-01T01:00:00+09:00,4,�k��,9.5,���k��,7.3,74.5,0,0,0,3
2024-01-01T01:01:00+09:00,3.9,�k��,9.5,���k��,7.3,75.4,0,0,0,3
2024-01-01T01:02:00+09:00,3.7,�k��,9.5,���k��,7.2,75.9,0,0,0,3
2024-01-01T01:03:00+09:00,3.9,�k��,9.5,���k��,7.3,74.8,0,0,0,3
2024-01-01T01:04:00+09:00,4,�k��,9.5,���k��,7.3,74.7,0,0,0,3
2024-01-01T01:05:00+09:00,4,�k��,9.5,���k��,7.2,75.3,0,0,0,3
2024-01-01T01:06:00+09:00,3.9,�k��,9.5,���k��,7.2,75.1,0,0,0,3
2024-01-01T01:07:00+09:00,3.8,�k��,9.5,���k��,7.2,76,0,0,0,3
2024-01-01T01:08:00+09:00,3.9,�k��,9.5,���k��,7.2,75.6,0,0,0,3
2024-01-01T01:09:00+09:00,3.8,�k��,8.9,���k��,7.1,76.1,0,0,0,3
2024-01-01T01:10:00+09:00,3.6,�k��,6.9,�k��,7.1,76.8,0,0,0,3
2024-01-01T01:11:00+09:00,3.6,�k��,6.9,�k��,7.1,77.3,0,0,0,3
2024-01-01T01:12:00+09:00,3.5,�k��,6.9,�k��,7,77.9,0,0,0,3
2024-01-01T01:13:00+09:00,3.4,�k��,6.6,�k�k��,7,78.2,0,0,0,3
2024-01-01T01:14:00+09:00,3.2,�k��,6.4,�k��,7,78.2,0,0,0,3
2024-01-01T01:15:00+09:00,3.3,�k��,6.5,���k��,7,77.9,0,0,0,3
2024-01-01T01:16:00+09:00,3.4,�k��,6.5,���k��,6.9,78.6,0,0,0,3
2024-01-01T01:17:00+09:00,3.5,�k��,6.5,���k��,6.9,78.6,0,0,0,3
2024-01-01T01:18:00+09:00,3.6,�k��,7.9,�k��,6.9,78.8,0,0,0,3
2024-01-01T01:19:00+09:00,3.4,�k��,7.9,�k��,6.9,77.9,0,0,0,3
2024-01-01T01:20:00+09:00,3.5,���k��,7.9,�k��,6.9,78.3,0,0,0,3
2024-01-01T01:21:00+09:00,3.6,���k��,7.9,�k��,6.9,78.9,0,0,0,3
2024-01-01T01:22:00+09:00,3.7,���k��,7.9,�k��,6.9,79.3,0,0,0,3
2024-01-01T01:23:00+09:00,3.8,���k��,7.9,�k��,6.8,79.8,0,0,0,3
2024-01-01T01:24:00+09:00,3.9,���k��,7.9,�k��,6.8,79.6,0,0,0,3
2024-01-01T01:25:00+09:00,3.7,���k��,7.9,�k��,6.8,79.1,0,0,0,3
2024-01-01T01:26:00+09:00,3.5,�k��,7.9,�k��,6.8,79,0,0,0,3
2024-01-01T01:27:00+09:00,3.4,�k��,7.9,�k��,6.8,79.1,0,0,0,3
2024-01-01T01:28:00+09:00,3.2,�k��,6.3,�k�k��,6.8,79.3,0,0,0,3
2024-01-01T01:29:00+09:00,3.2,�k��,6.3,�k�k��,6.9,77.6,0,0,0,3
2024-01-01T01:30:00+09:00,3.2,�k��,6.7,�k�k��,6.9,78.4,0,0,0,3
2024-01-01T01:31:00+09:00,3.2,�k��,6.7,�k�k��,6.9,77,0,0,0,3
2024-01-01T01:32:00+09:00,3.2,�k��,6.7,�k�k��,6.9,77.6,0,0,0,3
2024-01-01T01:33:00+09:00,3.2,�k��,6.7,�k�k��,6.8,78.1,0,0,0,3
2024-01-01T01:34:00+09:00,3.1,�k��,6.7,�k�k��,6.9,77.6,0,0,0,3
2024-01-01T01:35:00+09:00,3.1,�k��,6.7,�k�k��,6.8,78.6,0,0,0,3
2024-01-01T01:36:00+09:00,3.3,�k��,7.6,���k��,6.8,79.4,0,0,0,3
2024-01-01T01:37:00+09:00,3.6,�k��,7.6,���k��,6.8,77.9,0,0,0,3
2024-01-01T01:38:00+09:00,3.6,�k��,7.6,���k��,6.8,78.4,0,0,0,3
2024-01-01T01:39:00+09:00,3.8,�k��,7.6,���k��,6.8,78.5,0,0,0,3
2024-01-01T01:40:00+09:00,3.7,�k��,7.6,���k��,6.7,78.7,0,0,0,3
2024-01-01T01:41:00+09:00,3.7,�k��,7.6,���k��,6.7,79.7,0,0,0,3
2024-01-01T01:42:00+09:00,3.6,�k��,7.6,���k��,6.7,79,0,0,0,3
2024-01-01T01:43:00+09:00,3.8,�k��,7.6,���k��,6.7,78.9,0,0,0,3
2024-01-01T01:44:00+09:00,3.9,�k��,7.6,���k��,6.7,79,0,0,0,3
2024-01-01T01:45:00+09:00,4.1,�k��,7.6,���k��,6.7,78.4,0,0,0,3
2024-01-01T01:46:00+09:00,4,���k��,6.8,�k��,6.7,78.8,0,0,0,3
2024-01-01T01:47:00+09:00,4,���k��,7.2,�k��,6.7,78.7,0,0,0,3
2024-01-01T01:48:00+09:00,4.1,���k��,7.2,�k��,6.7,78.2,0,0,0,3
2024-01-01T01:49:00+09:00,4.1,���k��,7.2,�k��,6.6,78.9,0,0,0,3
2024-01-01T01:50:00+09:00,4.2,���k��,7.2,�k��,6.6,78.7,0,0,0,3
2024-01-01T01:51:00+09:00,4.3,���k��,7.2,�k��,6.7,78.4,0,0,0,3
2024-01-01T01:52:00+09:00,4.4,�k��,7.2,�k��,6.7,77.7,0,0,0,3
2024-01-01T01:53:00+09:00,4.3,�k��,7.2,�k��,6.7,78.5,0,0,0,3
2024-01-01T01:54:00+09:00,4.2,�k��,7.2,�k��,6.7,78.7,0,0,0,3
2024-01-01T01:55:00+09:00,4,�k��,7.2,�k��,6.6,79.1,0,0,0,3
2024-01-01T01:56:00+09:00,4,�k��,7.2,�k��,6.7,78.1,0,0,0,3
2024-01-01T01:57:00+09:00,3.9,�k��,6.6,�k�k��,6.7,77.9,0,0,0,3
2024-01-01T01:58:00+09:00,3.8,�k��,6.6,�k�k��,6.7,78.2,0,0,0,3
2024-01-01T01:59:00+09:00,3.6,�k��,6.6,�k�k��,6.6,79.5,0,0,0,3
2024-01-01T02:00:00+09:00,3.5,�k��,6.6,�k�k��,6.5,79.8,0,0,0,3
2024-01-01T02:01:00+09:00,3.5,�k��,7.6,�k��,6.6,78.2,0,0,0,3
2024-01-01T02:02:00+09:00,3.4,�k��,7.6,�k��,6.7,77.6,0,0,0,3
2024-01-01T02:03:00+09:00,3.3,�k��,7.6,�k��,6.6,78.3,0,0,0,3
2024-01-01T02:04:00+09:00,3.4,�k��,7.6,�k��,6.6,78.9,0,0,0,3
2024-01-01T02:05:00+09:00,3.3,�k��,7.6,�k��,6.5,79.7,0,0,0,3
2024-01-01T02:06:00+09:00,3.3,�k��,7.6,�k��,6.5,80.3,0,0,0,3
2024-01-01T02:07:00+09:00,3.4,�k��,7.6,�k��,6.5,79.2,0,0,0,3
2024-01-01T02:08:00+09:00,3.5,�k��,7.6,�k��,6.5,79.3,0,0,0,3
2024-01-01T02:09:00+09:00,3.7,�k��,7.6,�k��,6.5,79.8,0,0,0,3
2024-01-01T02:10:00+09:00,3.7,�k��,7.6,�k��,6.5,79.6,0,0,0,3
2024-01-01T02:11:00+09:00,3.7,�k��,6.3,�k�k��,6.6,78.1,0,0,0,3
2024-01-01T02:12:00+09:00,3.7,�k��,6.3,�k�k��,6.7,76.3,0,0,0,3
2024-01-01T02:13:00+09:00,3.8,�k��,6.3,�k�k��,6.7,77.6,0,0,0,3
2024-01-01T02:14:00+09:00,3.8,�k��,6.3,�k�k��,6.8,75.9,0,0,0,3
2024-01-01T02:15:00+09:00,3.9,�k��,6.4,���k��,6.8,75.1,0,0,0,3
2024-01-01T02:16:00+09:00,4,�k��,6.9,�k��,6.8,74.8,0,0,0,3
2024-01-01T02:17:00+09:00,4.1,�k��,6.9,�k��,7,73.6,0,0,0,3
2024-01-01T02:18:00+09:00,3.9,�k��,6.9,�k��,6.9,73.5,0,0,0,3
2024-01-01T02:19:00+09:00,3.7,�k��,6.9,�k��,6.9,74.1,0,0,0,3
2024-01-01T02:20:00+09:00,3.6,�k��,6.9,�k��,6.8,75.7,0,0,0,3
2024-01-01T02:21:00+09:00,3.3,�k��,6.9,�k��,6.7,77.4,0,0,0,3
2024-01-01T02:22:00+09:00,3.2,�k��,6.9,�k��,6.6,78.4,0,0,0,3
2024-01-01T02:23:00+09:00,3.1,�k��,6.9,�k��,6.6,78.3,0,0,0,3
2024-01-01T02:24:00+09:00,2.9,�k��,6.9,�k��,6.6,78.5,0,0,0,3
2024-01-01T02:25:00+09:00,2.8,�k��,6.9,�k��,6.6,78.9,0,0,0,3
2024-01-01T02:26:00+09:00,2.6,�k��,6.9,�k�k��,6.6,79.5,0,0,0,3
2024-01-01T02:27:00+09:00,2.5,�k��,5.2,���k��,6.5,78.8,0,0,0,3
2024-01-01T02:28:00+09:00,2.4,���k��,5.2,���k��,6.7,77,0,0,0,3
2024-01-01T02:29:00+09:00,2.5,���k��,5.2,���k��,6.6,78.6,0,0,0,3
2024-01-01T02:30:00+09:00,2.7,���k��,7.4,���k��,6.6,79.3,0,0,0,3
2024-01-01T02:31:00+09:00,3,���k��,7.4,���k��,6.7,77.1,0,0,0,3
2024-01-01T02:32:00+09:00,3,���k��,7.4,���k��,6.7,76.2,0,0,0,3
2024-01-01T02:33:00+09:00,2.9,���k��,7.4,���k��,6.8,75.7,0,0,0,3
2024-01-01T02:34:00+09:00,2.8,���k��,7.4,���k��,6.8,75.8,0,0,0,3
2024-01-01T02:35:00+09:00,2.8,���k��,7.4,���k��,6.7,77.1,0,0,0,3
2024-01-01T02:36:00+09:00,2.7,���k��,7.4,���k��,6.6,77.6,0,0,0,3
2024-01-01T02:37:00+09:00,2.6,���k��,7.4,���k��,6.6,77.8,0,0,0,3
2024-01-01T02:38:00+09:00,2.5,���k��,7.4,���k��,6.6,78.4,0,0,0,3
2024-01-01T02:39:00+09:00,2.5,���k��,7.4,���k��,6.6,78.4,0,0,0,3
2024-01-01T02:40:00+09:00,2.4,���k��,7.3,���k��,6.5,78.2,0,0,0,3
2024-01-01T02:41:00+09:00,2.2,���k��,4.1,�k��,6.5,78.7,0,0,0,3
2024-01-01T02:42:00+09:00,1.9,���k��,4,���k��,6.4,79.8,0,0,0,3
2024-01-01T02:43:00+09:00,1.9,���k��,4,���k��,6.4,80.9,0,0,0,3
2024-01-01T02:44:00+09:00,1.9,���k��,4,���k��,6.4,81,0,0,0,3
2024-01-01T02:45:00+09:00,2,���k��,4,���k��,6.4,80.8,0,0,0,3
2024-01-01T02:46:00+09:00,2,���k��,4,���k��,6.4,80.9,0,0,0,3
2024-01-01T02:47:00+09:00,2,�k��,4,���k��,6.4,79.9,0,0,0,3
2024-01-01T02:48:00+09:00,2,�k��,4,���k��,6.4,80.8,0,0,0,3
2024-01-01T02:49:00+09:00,1.8,�k��,3.8,�k��,6.3,81.6,0,0,0,3
2024-01-01T02:50:00+09:00,1.7,�k��,3.2,�k��,6.3,81.3,0,0,0,3
2024-01-01T02:51:00+09:00,1.6,���k��,3.2,�k��,6.3,81.5,0,0,0,3
2024-01-01T02:52:00+09:00,1.6,���k��,3.2,�k��,6.3,81.1,0,0,0,3
2024-01-01T02:53:00+09:00,1.6,���k��,3.2,�k��,6.3,81.2,0,0,0,3
2024-01-01T02:54:00+09:00,1.5,���k��,3.2,�k��,6.3,81.2,0,0,0,3
2024-01-01T02:55:00+09:00,1.5,���k��,3.2,�k��,6.2,81,0,0,0,3
2024-01-01T02:56:00+09:00,1.5,���k��,3.5,���k��,6.3,79.4,0,0,0,3
2024-01-01T02:57:00+09:00,1.7,���k��,4.5,�k��,6.3,78.4,0,0,0,3
2024-01-01T02:58:00+09:00,1.8,���k��,6.6,�k��,6.3,78.7,0,0,0,3
2024-01-01T02:59:00+09:00,2,���k��,7.2,���k��,6.4,77.3,0,0,0,3
2024-01-01T03:00:00+09:00,2.1,�k��,7.2,���k��,6.5,76,0,0,0,3
2024-01-01T03:01:00+09:00,2.1,�k��,7.2,���k��,6.5,77,0,0,0,3
2024-01-01T03:02:00+09:00,2.3,�k��,7.2,���k��,6.4,78.1,0,0,0,3
2024-01-01T03:03:00+09:00,2.4,�k��,7.2,���k��,6.2,79.1,0,0,0,3
2024-01-01T03:04:00+09:00,2.5,�k��,7.2,���k��,6.2,79.8,0,0,0,3
2024-01-01T03:05:00+09:00,2.6,�k��,7.2,���k��,6.1,80.3,0,0,0,3
2024-01-01T03:06:00+09:00,2.7,�k��,7.2,���k��,6.2,78.9,0,0,0,3
2024-01-01T03:07:00+09:00,2.8,�k��,7.2,���k��,6.2,78.5,0,0,0,3
2024-01-01T03:08:00+09:00,2.7,�k��,7.2,���k��,6.2,79.1,0,0,0,3
2024-01-01T03:09:00+09:00,2.6,�k��,6.3,���k��,6.1,79.7,0,0,0,3
2024-01-01T03:10:00+09:00,2.6,���k��,6.3,���k��,6.1,80.6,0,0,0,3
2024-01-01T03:11:00+09:00,2.7,���k��,6.3,���k��,6.1,80.4,0,0,0,3
2024-01-01T03:12:00+09:00,2.6,���k��,6.3,���k��,6.1,80.6,0,0,0,3
2024-01-01T03:13:00+09:00,2.5,���k��,6.3,���k��,6.1,79.6,0,0,0,3
2024-01-01T03:14:00+09:00,2.5,���k��,6.3,���k��,6.1,80,0,0,0,3
2024-01-01T03:15:00+09:00,2.4,���k��,6.3,���k��,6.1,80,0,0,0,3
2024-01-01T03:16:00+09:00,2.2,���k��,4.9,�k��,6.1,79.9,0,0,0,3
2024-01-01T03:17:00+09:00,1.9,���k��,3.9,���k��,6.1,80,0,0,0,3
2024-01-01T03:18:00+09:00,1.9,���k��,3.9,���k��,6,80.8,0,0,0,3
2024-01-01T03:19:00+09:00,1.8,���k��,3.9,���k��,6,80.8,0,0,0,3
2024-01-01T03:20:00+09:00,1.8,���k��,3.9,���k��,6,81.2,0,0,0,3
2024-01-01T03:21:00+09:00,1.7,���k��,3.9,���k��,6,81.6,0,0,0,3
2024-01-01T03:22:00+09:00,1.7,���k��,3.2,��,5.9,81.5,0,0,0,3
2024-01-01T03:23:00+09:00,1.9,���k��,5,�k��,5.9,81.8,0,0,0,3
2024-01-01T03:24:00+09:00,1.9,���k��,5,�k��,5.9,81.1,0,0,0,3
2024-01-01T03:25:00+09:00,2.1,���k��,5,�k��,6,80.4,0,0,0,3
2024-01-01T03:26:00+09:00,2.3,���k��,5,�k��,6,79.9,0,0,0,3
2024-01-01T03:27:00+09:00,2.6,���k��,5.8,�k��,6,79.6,0,0,0,3
2024-01-01T03:28:00+09:00,2.8,���k��,5.8,�k��,6.1,79.3,0,0,0,3
2024-01-01T03:29:00+09:00,2.8,���k��,5.8,�k��,6,79.9,0,0,0,3
2024-01-01T03:30:00+09:00,2.9,���k��,5.8,�k��,6,80.5,0,0,0,3
2024-01-01T03:31:00+09:00,2.9,���k��,5.8,�k��,5.9,80.9,0,0,0,3
2024-01-01T03:32:00+09:00,2.9,���k��,5.8,�k��,5.9,80.4,0,0,0,3
2024-01-01T03:33:00+09:00,2.7,���k��,5.8,�k��,6,79.9,0,0,0,3
2024-01-01T03:34:00+09:00,2.5,���k��,5.8,�k��,5.9,80.6,0,0,0,3
2024-01-01T03:35:00+09:00,2.4,���k��,5.8,�k��,5.9,81.1,0,0,0,3
2024-01-01T03:36:00+09:00,2.3,���k��,5.8,�k��,5.8,81.3,0,0,0,3
2024-01-01T03:37:00+09:00,1.9,���k��,5.1,�k�k��,5.8,81.8,0,0,0,3
2024-01-01T03:38:00+09:00,1.7,���k��,3.2,���k��,5.8,82.1,0,0,0,3
2024-01-01T03:39:00+09:00,1.7,���k��,3.1,��,5.8,82.6,0,0,0,3
2024-01-01T03:40:00+09:00,1.7,���k��,3.1,��,5.8,82.7,0,0,0,3
2024-01-01T03:41:00+09:00,1.6,���k��,2.9,�k��,5.8,82.8,0,0,0,3
2024-01-01T03:42:00+09:00,1.6,���k��,2.9,�k��,5.8,82.8,0,0,0,3
2024-01-01T03:43:00+09:00,1.6,���k��,2.9,�k��,5.8,82.8,0,0,0,3
2024-01-01T03:44:00+09:00,1.6,�k��,2.9,�k��,5.8,82.8,0,0,0,3
2024-01-01T03:45:00+09:00,1.5,�k��,2.9,�k��,5.8,83,0,0,0,3
2024-01-01T03:46:00+09:00,1.5,���k��,2.9,�k��,5.8,82.6,0,0,0,3
2024-01-01T03:47:00+09:00,1.5,�k��,2.9,�k��,5.7,82.9,0,0,0,3
2024-01-01T03:48:00+09:00,1.5,�k��,2.9,�k��,5.7,83.4,0,0,0,3
2024-01-01T03:49:00+09:00,1.5,�k��,2.8,�k��,5.7,83.4,0,0,0,3
2024-01-01T03:50:00+09:00,1.4,�k��,2.8,�k��,5.7,83.9,0,0,0,3
2024-01-01T03:51:00+09:00,1.6,�k��,3,�k�k��,5.7,83.9,0,0,0,3
2024-01-01T03:52:00+09:00,1.6,�k��,3,�k�k��,5.6,84.6,0,0,0,3
2024-01-01T03:53:00+09:00,1.5,�k�k��,3,�k�k��,5.6,84.9,0,0,0,3
2024-01-01T03:54:00+09:00,1.5,�k��,3,�k�k��,5.6,84.9,0,0,0,3
2024-01-01T03:55:00+09:00,1.5,�k��,3,�k�k��,5.6,85.4,0,0,0,3
2024-01-01T03:56:00+09:00,1.5,�k��,3,�k�k��,5.6,85.5,0,0,0,3
2024-01-01T03:57:00+09:00,1.5,�k��,3,�k�k��,5.6,85.6,0,0,0,3
2024-01-01T03:58:00+09:00,1.5,�k��,3,�k�k��,5.6,86.4,0,0,0,3
2024-01-01T03:59:00+09:00,1.6,�k��,4.1,�k��,5.6,86.1,0,0,0,3
2024-01-01T04:00:00+09:00,1.6,�k��,4.1,�k��,5.6,85.5,0,0,0,3
2024-01-01T04:01:00+09:00,1.4,���k��,4.1,�k��,5.6,85.7,0.5,0.5,0.5,3.5
2024-01-01T04:02:00+09:00,1.4,���k��,4.1,�k��,5.6,85.8,0.5,0.5,0.5,3.5
2024-01-01T04:03:00+09:00,1.5,���k��,4.1,�k��,5.5,85.5,0.5,0.5,0.5,3.5
2024-01-01T04:04:00+09:00,1.6,���k��,4.1,�k��,5.5,85.7,0.5,0.5,0.5,3.5
2024-01-01T04:05:00+09:00,1.6,���k��,4.1,�k��,5.5,86,0.5,0.5,0.5,3.5
2024-01-01T04:06:00+09:00,1.6,���k��,4.1,�k��,5.5,85.8,0.5,0.5,0.5,3.5
2024-01-01T04:07:00+09:00,1.5,���k��,4.1,�k��,5.5,85.8,0.5,0.5,0.5,3.5
2024-01-01T04:08:00+09:00,1.5,���k��,4.1,�k��,5.5,85.2,0.5,0.5,0.5,3.5
2024-01-01T04:09:00+09:00,1.5,���k��,3.2,�k��,5.5,84.4,0.5,0.5,0.5,3.5
2024-01-01T04:10:00+09:00,1.6,���k��,3.2,�k��,5.5,84.4,0.5,0.5,0.5,3.5
2024-01-01T04:11:00+09:00,1.7,���k��,3.7,���k��,5.5,84.7,0,0.5,0.5,3.5
2024-01-01T04:12:00+09:00,1.8,���k��,3.7,���k��,5.4,84.9,0,0.5,0.5,3.5
2024-01-01T04:13:00+09:00,1.8,���k��,3.7,���k��,5.4,85.2,0,0.5,0.5,3.5
2024-01-01T04:14:00+09:00,1.8,���k��,3.7,���k��,5.4,85.4,0,0.5,0.5,3.5
2024-01-01T04:15:00+09:00,1.8,���k��,3.7,���k��,5.3,85.6,0,0.5,0.5,3.5
2024-01-01T04:16:00+09:00,1.9,���k��,3.7,���k��,5.4,85.6,0,0.5,0.5,3.5
2024-01-01T04:17:00+09:00,2,���k��,3.7,���k��,5.4,85.3,0,0.5,0.5,3.5
2024-01-01T04:18:00+09:00,1.9,���k��,3.7,���k��,5.4,85.4,0,0.5,0.5,3.5
2024-01-01T04:19:00+09:00,1.8,���k��,3.7,���k��,5.4,85.1,0,0.5,0.5,3.5
2024-01-01T04:20:00+09:00,1.8,���k��,3.7,���k��,5.4,85.2,0,0.5,0.5,3.5
2024-01-01T04:21:00+09:00,1.8,���k��,3.4,���k��,5.4,85.3,0,0.5,0.5,3.5
2024-01-01T04:22:00+09:00,1.8,���k��,3.4,���k��,5.4,84.9,0,0.5,0.5,3.5
2024-01-01T04:23:00+09:00,1.8,���k��,3.4,���k��,5.4,85.1,0,0.5,0.5,3.5
2024-01-01T04:24:00+09:00,1.8,���k��,3.4,���k��,5.4,85.5,0,0.5,0.5,3.5
2024-01-01T04:25:00+09:00,1.8,���k��,3.4,���k��,5.4,85.3,0,0.5,0.5,3.5
2024-01-01T04:26:00+09:00,1.8,��,3.4,���k��,5.4,84.9,0,0.5,0.5,3.5
2024-01-01T04:27:00+09:00,1.8,���k��,3.4,���k��,5.4,85.2,0,0.5,0.5,3.5
2024-01-01T04:28:00+09:00,1.8,���k��,3.4,���k��,5.3,85.6,0,0.5,0.5,3.5
2024-01-01T04:29:00+09:00,1.8,���k��,3.4,���k��,5.4,85.7,0,0.5,0.5,3.5
2024-01-01T04:30:00+09:00,1.7,���k��,3.4,���k��,5.4,85.4,0,0.5,0.5,3.5
2024-01-01T04:31:00+09:00,1.5,���k��,2.8,��,5.4,85.5,0,0.5,0.5,3.5
2024-01-01T04:32:00+09:00,1.4,��,2.8,��,5.4,85.7,0,0.5,0.5,3.5
2024-01-01T04:33:00+09:00,1.4,���k��,2.8,��,5.3,86.2,0,0.5,0.5,3.5
2024-01-01T04:34:00+09:00,1.5,���k��,2.9,���k��,5.3,85.8,0,0.5,0.5,3.5
2024-01-01T04:35:00+09:00,1.5,���k��,2.9,���k��,5.3,86.2,0,0.5,0.5,3.5
2024-01-01T04:36:00+09:00,1.5,���k��,2.9,���k��,5.3,86.6,0,0.5,0.5,3.5
2024-01-01T04:37:00+09:00,1.5,���k��,2.9,���k��,5.3,85.8,0,0.5,0.5,3.5
2024-01-01T04:38:00+09:00,1.4,���k��,2.9,���k��,5.4,84.8,0,0.5,0.5,3.5
2024-01-01T04:39:00+09:00,1.6,���k��,4.3,�k��,5.4,85.4,0,0.5,0.5,3.5
2024-01-01T04:40:00+09:00,1.8,���k��,4.3,�k��,5.4,85.2,0,0.5,0.5,3.5
2024-01-01T04:41:00+09:00,1.9,���k��,4.3,�k��,5.4,84.5,0,0.5,0.5,3.5
2024-01-01T04:42:00+09:00,2.2,�k��,5.6,�k��,5.4,84.3,0,0.5,0.5,3.5
2024-01-01T04:43:00+09:00,2.4,�k��,5.6,�k��,5.4,83.7,0,0.5,0.5,3.5
2024-01-01T04:44:00+09:00,2.5,�k��,5.6,�k��,5.4,83.9,0,0.5,0.5,3.5
2024-01-01T04:45:00+09:00,2.6,�k��,5.6,�k��,5.4,83.8,0,0.5,0.5,3.5
2024-01-01T04:46:00+09:00,2.7,���k��,5.6,�k��,5.4,83.5,0,0.5,0.5,3.5
2024-01-01T04:47:00+09:00,2.8,�k��,5.6,�k��,5.4,83.4,0,0.5,0.5,3.5
2024-01-01T04:48:00+09:00,2.9,�k��,5.6,�k��,5.4,83.7,0,0.5,0.5,3.5
2024-01-01T04:49:00+09:00,2.8,�k��,5.6,�k��,5.4,83.9,0,0.5,0.5,3.5
2024-01-01T04:50:00+09:00,2.7,�k��,5.6,�k��,5.3,84.4,0,0.5,0.5,3.5
2024-01-01T04:51:00+09:00,2.6,���k��,5.6,�k��,5.3,84.8,0,0.5,0.5,3.5
2024-01-01T04:52:00+09:00,2.4,���k��,5.5,�k��,5.3,84.8,0,0.5,0.5,3.5
2024-01-01T04:53:00+09:00,2.2,���k��,4.2,�k��,5.3,85,0,0.5,0.5,3.5
2024-01-01T04:54:00+09:00,2,���k��,4,���k��,5.3,84.9,0,0.5,0.5,3.5
2024-01-01T04:55:00+09:00,1.9,���k��,3.8,���k��,5.3,85.3,0,0.5,0.5,3.5
2024-01-01T04:56:00+09:00,1.7,��,3.8,���k��,5.3,85.1,0,0.5,0.5,3.5
2024-01-01T04:57:00+09:00,1.6,��,3.1,���k��,5.3,85.2,0,0.5,0.5,3.5
2024-01-01T04:58:00+09:00,1.5,��,3.7,���k��,5.3,85.3,0,0.5,0.5,3.5
2024-01-01T04:59:00+09:00,1.5,��,3.7,���k��,5.3,85,0,0.5,0.5,3.5
2024-01-01T05:00:00+09:00,1.5,��,3.7,���k��,5.3,85.2,0,0.5,0.5,3.5
2024-01-01T05:01:00+09:00,1.4,��,3.7,���k��,5.3,85.6,0,0,0.5,3.5
2024-01-01T05:02:00+09:00,1.3,��,3.7,���k��,5.2,86.6,0,0,0.5,3.5
2024-01-01T05:03:00+09:00,1.2,��,3.7,���k��,5.1,88.1,0,0,0.5,3.5
2024-01-01T05:04:00+09:00,1.3,��,3.7,���k��,5.2,88.3,0,0,0.5,3.5
2024-01-01T05:05:00+09:00,1.3,��,3.7,���k��,5.2,87,0,0,0.5,3.5
2024-01-01T05:06:00+09:00,1.3,��,3.7,���k��,5.2,86.7,0,0,0.5,3.5
2024-01-01T05:07:00+09:00,1.4,��,3.7,���k��,5.2,86.4,0,0,0.5,3.5
2024-01-01T05:08:00+09:00,1.3,��,3.1,���k��,5.3,85.9,0,0,0.5,3.5
2024-01-01T05:09:00+09:00,1.3,��,2.8,���k��,5.3,86,0,0,0.5,3.5
2024-01-01T05:10:00+09:00,1.4,��,3.5,���k��,5.3,86.1,0,0,0.5,3.5
2024-01-01T05:11:00+09:00,1.5,���k��,3.5,���k��,5.3,86.1,0,0,0.5,3.5
2024-01-01T05:12:00+09:00,1.6,���k��,3.5,���k��,5.3,86.2,0,0,0.5,3.5
2024-01-01T05:13:00+09:00,1.8,���k��,3.7,���k��,5.3,86.4,0,0,0.5,3.5
2024-01-01T05:14:00+09:00,1.9,���k��,3.8,���k��,5.3,86.1,0,0,0.5,3.5
2024-01-01T05:15:00+09:00,2.1,���k��,3.8,���k��,5.3,85.9,0,0,0.5,3.5
2024-01-01T05:16:00+09:00,2.1,���k��,3.8,���k��,5.3,85.9,0,0,0.5,3.5
2024-01-01T05:17:00+09:00,2.1,���k��,3.8,���k��,5.2,85.8,0,0,0.5,3.5
2024-01-01T05:18:00+09:00,2.3,��,3.8,���k��,5.3,86,0,0,0.5,3.5
2024-01-01T05:19:00+09:00,2.3,��,3.8,���k��,5.3,85.8,0,0,0.5,3.5
2024-01-01T05:20:00+09:00,2.4,��,3.8,���k��,5.3,85.9,0,0,0.5,3.5
2024-01-01T05:21:00+09:00,2.3,��,3.8,���k��,5.3,85.9,0,0,0.5,3.5
2024-01-01T05:22:00+09:00,2.3,��,3.8,���k��,5.2,86.4,0,0,0.5,3.5
2024-01-01T05:23:00+09:00,2.3,��,4.5,���k��,5.2,86.5,0,0,0.5,3.5
2024-01-01T05:24:00+09:00,2.3,��,4.5,���k��,5.2,86.4,0,0,0.5,3.5
2024-01-01T05:25:00+09:00,2.3,��,4.5,���k��,5.3,86.4,0,0,0.5,3.5
2024-01-01T05:26:00+09:00,2.3,��,4.5,���k��,5.3,86,0,0,0.5,3.5
2024-01-01T05:27:00+09:00,2.4,��,5.7,���k��,5.3,85.9,0,0,0.5,3.5
2024-01-01T05:28:00+09:00,2.4,��,5.7,���k��,5.3,85.8,0,0,0.5,3.5
2024-01-01T05:29:00+09:00,2.5,��,5.7,���k��,5.3,86.3,0,0,0.5,3.5
2024-01-01T05:30:00+09:00,2.4,��,5.7,���k��,5.2,86.8,0,0,0.5,3.5
2024-01-01T05:31:00+09:00,2.5,���k��,5.7,���k��,5.3,86.9,0,0,0.5,3.5
2024-01-01T05:32:00+09:00,2.6,���k��,5.7,���k��,5.2,87.2,0,0,0.5,3.5
2024-01-01T05:33:00+09:00,2.5,���k��,5.7,���k��,5.2,87.3,0,0,0.5,3.5
2024-01-01T05:34:00+09:00,2.5,���k��,5.7,���k��,5.2,87.4,0,0,0.5,3.5
2024-01-01T05:35:00+09:00,2.6,���k��,5.7,���k��,5.2,87.5,0,0,0.5,3.5
2024-01-01T05:36:00+09:00,2.6,���k��,5.7,���k��,5.2,87.9,0,0,0.5,3.5
2024-01-01T05:37:00+09:00,2.4,���k��,4.3,���k��,5.2,88.3,0,0,0.5,3.5
2024-01-01T05:38:00+09:00,2.4,���k��,4.3,���k��,5.2,88.4,0,0,0.5,3.5
2024-01-01T05:39:00+09:00,2.5,���k��,4.5,�k��,5.2,88,0,0,0.5,3.5
2024-01-01T05:40:00+09:00,2.5,���k��,4.5,�k��,5.2,87.8,0,0,0.5,3.5
2024-01-01T05:41:00+09:00,2.3,���k��,4.5,�k��,5.2,88.1,0,0,0.5,3.5
2024-01-01T05:42:00+09:00,2.2,���k��,4.5,�k��,5.2,88,0,0,0.5,3.5
2024-01-01T05:43:00+09:00,2.3,���k��,4.5,�k��,5.2,87.5,0,0,0.5,3.5
2024-01-01T05:44:00+09:00,2.2,���k��,4.5,�k��,5.3,87.2,0,0,0.5,3.5
2024-01-01T05:45:00+09:00,2,���k��,4.5,�k��,5.3,86.7,0,0,0.5,3.5
2024-01-01T05:46:00+09:00,1.9,��,4.5,�k��,5.3,86.9,0,0,0.5,3.5
2024-01-01T05:47:00+09:00,1.9,��,4.5,�k��,5.2,87,0,0,0.5,3.5
2024-01-01T05:48:00+09:00,1.7,��,4.5,�k��,5.2,87.5,0,0,0.5,3.5
2024-01-01T05:49:00+09:00,1.5,��,3.4,���k��,5.1,87.9,0,0,0.5,3.5
2024-01-01T05:50:00+09:00,1.3,��,3.3,�쓌,5.1,88.3,0,0,0.5,3.5
2024-01-01T05:51:00+09:00,1.2,��,3.3,�쓌,5.2,87.2,0,0,0.5,3.5
2024-01-01T05:52:00+09:00,1.1,���쓌,3.3,�쓌,5.1,87.9,0,0,0.5,3.5
2024-01-01T05:53:00+09:00,1,���쓌,3.3,�쓌,5,88.7,0,0,0.5,3.5
2024-01-01T05:54:00+09:00,0.8,��,3.3,�쓌,4.9,89.4,0,0,0.5,3.5
2024-01-01T05:55:00+09:00,0.8,���쓌,3.3,�쓌,4.9,89.8,0,0,0.5,3.5
2024-01-01T05:56:00+09:00,0.7,���쓌,3.3,�쓌,4.9,90.5,0,0,0.5,3.5
2024-01-01T05:57:00+09:00,0.6,���쓌,1.3,��쓌,4.8,90.7,0,0,0.5,3.5
2024-01-01T05:58:00+09:00,0.6,���쓌,1.4,��쓌,4.7,91.2,0,0,0.5,3.5
2024-01-01T05:59:00+09:00,0.7,���쓌,1.4,��쓌,4.7,91.7,0,0,0.5,3.5
2024-01-01T06:00:00+09:00,0.7,���쓌,1.4,��쓌,4.8,91.7,0,0,0.5,3.5
2024-01-01T06:01:00+09:00,0.8,���쓌,1.6,���쓌,4.9,90.4,0,0,0.5,3.5
2024-01-01T06:02:00+09:00,0.9,���쓌,2.1,�k��,4.9,89.5,0,0,0.5,3.5
2024-01-01T06:03:00+09:00,1,���쓌,2.8,�k��,4.9,88.4,0,0,0.5,3.5
2024-01-01T06:04:00+09:00,1.3,���쓌,3.9,�k��,5,87.8,0,0,0.5,3.5
2024-01-01T06:05:00+09:00,1.5,��,4.4,�k��,5.1,86.9,0,0,0.5,3.5
2024-01-01T06:06:00+09:00,1.8,��,4.6,���k��,5.1,86.5,0,0,0.5,3.5
2024-01-01T06:07:00+09:00,2,���k��,4.6,���k��,5.1,86.3,0,0,0.5,3.5
2024-01-01T06:08:00+09:00,2.2,���k��,4.6,���k��,5.1,86.3,0,0,0.5,3.5
2024-01-01T06:09:00+09:00,2.4,���k��,4.6,���k��,5.2,86.3,0,0,0.5,3.5
2024-01-01T06:10:00+09:00,2.7,���k��,4.7,�k��,5.2,86,0,0,0.5,3.5
2024-01-01T06:11:00+09:00,2.9,�k��,4.7,�k��,5.3,85.3,0,0,0.5,3.5
2024-01-01T06:12:00+09:00,3.1,�k��,4.7,�k��,5.2,85.5,0,0,0.5,3.5